Regional Weather Roundup
Issued by NWS Upton, NY

Current Version | Previous Version | Graphics & Text | Print | Product List | Glossary On
Versions: 1 2 3 4 5 6 7 8 9 10 11 12 13 14 15 16 17 18 19 20 21 22 23 24 25 26 27 28 29 30 31 32 33 34 35 36 37 38 39 40 41 42 43 44 45 46 47 48 49 50
000 ASUS41 KOKX 311705 RWROKX REGIONAL WEATHER ROUNDUP NATIONAL WEATHER SERVICE NEW YORK NY 100 PM EDT TUE MAY 31 2016 NOTE: "FAIR" INDICATES FEW OR NO CLOUDS BELOW 12,000 FEET WITH NO SIGNIFICANT WEATHER AND/OR OBSTRUCTIONS TO VISIBILITY. NYZ071-072-176-178-NJZ106-104-311800- NEW YORK CITY METRO AREA CITY SKY/WX TMP DP RH WIND PRES REMARKS CENTRAL PARK MOSUNNY 82 61 48 CALM 29.98F LAGUARDIA APRT MOSUNNY 81 64 56 E7 29.95F KENNEDY INTL MOSUNNY 76 68 76 SE10 29.97F NEWARK/LIBERTY PTSUNNY 83 60 45 NE7 29.95F BRNX BOT. GARD N/A 81 59 47 CALM 29.96F TETERBORO SUNNY 82 54 37 CALM 29.94F $$ NYZ177-179-078>081-311800- LONG ISLAND NEW YORK CITY SKY/WX TMP DP RH WIND PRES REMARKS FARMINGDALE CLOUDY 75 67 76 S9 29.96F ISLIP MOSUNNY 76 67 73 VRB6 29.96F SHIRLEY MOSUNNY 75 67 76 S9 29.97F RIVERHEAD N/A 79 61 53 NE1 29.94F WESTHAMPTON CLOUDY 73 66 78 SW8 29.98F EAST HAMPTON FAIR 71 66 84 SW8 29.96F MONTAUK POINT N/A 72 67 84 S5 29.97F $$ NYZ052-065-067-311800- HUDSON VALLEY CITY SKY/WX TMP DP RH WIND PRES REMARKS WHITE PLAINS MOSUNNY 80 54 40 CALM 29.96F NEWBURGH MOSUNNY 79 57 47 SW6 29.97F MONTGOMERY SUNNY 83 59 44 CALM 29.95F POUGHKEEPSIE SUNNY 84 55 36 N7 29.94F ALBANY MOSUNNY 80 51 36 NW18 29.94F $$ NJZ001-105-106-008-010-013-015-019>022-104-311800- NEW JERSEY CITY SKY/WX TMP DP RH WIND PRES REMARKS NEWARK/LIBERTY PTSUNNY 83 60 45 NE7 29.95F TETERBORO SUNNY 82 54 37 CALM 29.94F CALDWELL SUNNY 83 51 33 N3 29.96F MORRISTOWN MOSUNNY 82 55 39 CALM 29.96F SOMERVILLE SUNNY 84 53 34 N5 29.94F SUSSEX SUNNY 82 57 42 CALM 29.97S ANDOVER N/A 81 54 39 N6 29.98F TRENTON MOSUNNY 83 61 47 MISG 29.95F MILLVILLE MOSUNNY 81 65 58 NE7 29.96F ATLANTIC CITY MOSUNNY 79 68 69 CALM 29.96F WRIGHTSTOWN MOSUNNY 81 68 66 NE9 29.93F TOMS RIVER PTSUNNY 81 64 57 E7 29.96S BELMAR MOSUNNY 79 67 66 VRB7 29.98S $$ PAZ047>061-062-071-311800- EASTERN PENNSYLVANIA CITY SKY/WX TMP DP RH WIND PRES REMARKS PHILADELPHIA MOSUNNY 84 55 36 E6 29.96S ALLENTOWN SUNNY 84 56 38 NE5 29.98F SCRANTON SUNNY 81 54 39 N7 30.00S $$ CTZ002-004>006-009-010-012-RIZ004-006-007-MAZ004-011-015-311800- SOUTHERN NEW ENGLAND IN CT CITY SKY/WX TMP DP RH WIND PRES REMARKS BRADLEY INTL MOSUNNY 83 51 33 NW8 29.92F HARTFORD SUNNY 85 54 34 W8 29.93F DANBURY SUNNY 81 51 35 N3 29.97F WTRBRY/OXFORD MOSUNNY 79 54 41 S6 29.98F BRIDGEPORT SUNNY 78 61 55 S12 29.95F MERIDEN SUNNY 82 52 35 CALM 29.94F NEW HAVEN SUNNY 77 64 64 S9 29.95F CHESTER FAIR 79 54 41 CALM 29.95F GROTON MOSUNNY 69 67 93 S8 29.94F FOG WILLIMANTIC SUNNY 82 52 35 W8 29.93F IN RI CITY SKY/WX TMP DP RH WIND PRES REMARKS PROVIDENCE PTSUNNY 78 66 66 S13 29.92F BLOCK ISLAND CLOUDY 68 64 87 SW18 29.96F FOG WESTERLY CLOUDY 74 65 73 W7 29.95F IN MA CITY SKY/WX TMP DP RH WIND PRES REMARKS BOSTON PTSUNNY 84 48 28 SW14 29.88F WORCESTER SUNNY 77 47 34 W12G21 29.94F WESTFIELD SUNNY 81 48 31 VRB3G16 29.93F PROVINCETOWN CLOUDY 70 65 84 S17G23 29.90F NANTUCKET CLOUDY 64 61 90 SW13 29.97F $$ ANZ330-335-338-340-345-350-353-355-311800- COASTAL MARINE OBSERVATIONS STATION/POSITION TIME SKY/WX TEMP WIND PRES VSBY WAVE AIR SEA DIR/SP/G HT/PER (UTC) (F) (DEG/KT/KT) (MB) (MI) (FT/S) NY HARB ENTRANCE 1550 61 59 180/ 6/ 8 1014.9 3/ 7 20S FIRE ISLAND 1550 63 62 210/ 4/ 6 1015.1 4/ 8 GREAT SOUTH BAY 1600 65 71 220/ 8/ 10 N/A 23 SSW MONTAUK P 1650 62 59 220/ 8/ 8 1014.6 4/ 8 15 E BARNEGAT LI 1622 63 N/A 4/ 8 HUDSON CANYON 1550 63 61 1015.1 4/ 7 KINGS POINT 1600 78 60 1014.5 EXECUTION ROCKS NOT AVBL CENTRAL LI SOUND 1600 67 210/ 6/ 8 N/A 1 EASTERN LI SOUND 1600 62 56 CALM / 2 N/A ROBBINS REEF 1600 72 150/ 10/ 12 1014.0 $$ >>>>>>>>>>>>>>>>>>>>>>>>>>>> KEY <<<<<<<<<<<<<<<<<<<<<<<<<<< > < > SKY/WX - SKY CONDITION/PRESENT WEATHER < > TMP - TEMPERATURE IN FAHRENHEIT < > DP - DEWPOINT IN FAHRENHEIT < > RH - RELATIVE HUMIDITY IN PERCENT < > WIND - DIRECTION AND SPEED IN MPH < > PRES - MEAN SEA LEVEL PRESSURE IN INCHES OF HG < > WCI - WIND CHILL INDEX < > VSB - VISIBILITY IN MILES < > HX - HEAT INDEX < > TC - TEMPERATURE IN CELSIUS < > VRB - VARIABLE WIND DIRECTION < > < >>>>>>>>>>>>>>>>>>>>>>>>>>>> KEY <<<<<<<<<<<<<<<<<<<<<<<<<<<

USA.gov is the U.S. government's official web portal to all federal, state and local government web resources and services.